Change the Weather History Date:

Saturday, April 12, 2014

  Actual Average Record
Temperature  
Mean Temperature 58 °F -  
Max Temperature 72 °F - - ()
Min Temperature 45 °F - - ()
Degree Days  
Heating Degree Days 6    
Growing Degree Days 8 (Base 50)    
Moisture  
Dew Point 44 °F    
Average Humidity 54    
Maximum Humidity 84    
Minimum Humidity 23    
Precipitation  
Precipitation 0.00 in - - ()
Sea Level Pressure  
Sea Level Pressure 30.02 in    
Wind  
Wind Speed 4 mph ()    
Max Wind Speed 9 mph    
Max Gust Speed -    
T = Trace of Precipitation, MM = Missing Value Source: Averaged Metar Reports

Daily Weather History Graph

Daily Weather History Graph

Search for Another Location

Airport or City:

Trip Planner

Search our weather history database for the weather conditions in past years. The results will help you decide how hot, cold, wet, or windy it might be!

Date:

Astronomy

Apr. 12, 2014 Rise Set
Actual Time 6:51 AM WEST 8:04 PM WEST
Civil Twilight 6:23 AM WEST 8:33 PM WEST
Nautical Twilight 5:48 AM WEST 9:07 PM WEST
Astronomical Twilight 5:12 AM WEST 9:43 PM WEST
Moon 5:27 PM WEST (4/12) 5:13 AM WEST (4/12)
Length of Visible Light 14h 09m
Length of Day
13h 12m
Waxing Gibbous, 91% of the Moon is Illuminated
Apr 12
Waxing Gibbous
Apr 15
Full
Apr 22
Last Quarter
Apr 29
New
May 7
First Quarter

Hourly Weather History & Observations

Time (WEST) Temp. Dew Point Humidity Pressure Visibility Wind Dir Wind Speed Gust Speed Precip Events Conditions
12:00 AM 57 °F 47 °F 61% 30.00 in - NE 8.9 mph - -  
1:00 AM 54 °F 47 °F 70% 30.02 in - SE 4.5 mph - -  
2:00 AM 51 °F 45 °F 74% 30.04 in - SE 2.2 mph - -  
3:00 AM 50 °F 44 °F 74% 30.04 in - 2.2 mph - -  
4:00 AM 48 °F 44 °F 79% 30.05 in - NNE 2.2 mph - -  
5:00 AM 47 °F 43 °F 80% 30.06 in - North 2.2 mph - -  
6:00 AM 46 °F 43 °F 84% 30.06 in - NE 2.2 mph - -  
7:00 AM 46 °F 42 °F 82% 30.06 in - Calm Calm - -  
8:00 AM 48 °F 43 °F 77% 30.06 in - Calm Calm - -  
9:00 AM 51 °F 45 °F 72% 30.06 in - Calm Calm - -  
10:00 AM 55 °F 45 °F 60% 30.05 in - Calm Calm - -  
11:00 AM 60 °F 46 °F 50% 30.02 in - 4.5 mph - -  
12:00 PM 64 °F 41 °F 32% 30.00 in - SE 6.7 mph - -  
1:00 PM 66 °F 44 °F 34% 29.98 in - SE 6.7 mph - -  
2:00 PM 69 °F 44 °F 30% 29.96 in - 6.7 mph - -  
3:00 PM 70 °F 42 °F 25% 29.94 in - 4.5 mph - -  
4:00 PM 70 °F 40 °F 23% 29.94 in - 6.7 mph - -  
5:00 PM 71 °F 43 °F 25% 29.94 in - 6.7 mph - -  
6:00 PM 70 °F 44 °F 27% 29.95 in - 4.5 mph - -  
7:00 PM 67 °F 44 °F 31% 29.98 in - SSE 6.7 mph - -  
8:00 PM 64 °F 46 °F 41% 30.01 in - SSE 6.7 mph - -  
9:00 PM 62 °F 46 °F 45% 30.06 in - SE 4.5 mph - -  
10:00 PM 60 °F 47 °F 52% 30.09 in - SE 2.2 mph - -  
11:00 PM 57 °F 47 °F 61% 30.12 in - 2.2 mph - -